Hourly Weather Campo Grande

Today, 12 July, Sunday

Time Temperature Precipitation Wind Pressure Humidity
00:00 +23°C° 0 mm 2 mps 709 mmHg 45%
01:00 +23°C° 0 mm 2 mps 709 mmHg 45%
02:00 +23°C° 0 mm 2 mps 709 mmHg 44%
03:00 +21°C° 0 mm 2 mps 709 mmHg 45%
04:00 +21°C° 0 mm 2 mps 709 mmHg 45%
05:00 +20°C° 0 mm 2 mps 709 mmHg 46%
06:00 +23°C° 0 mm 2 mps 710 mmHg 45%
07:00 +24°C° 0 mm 2 mps 710 mmHg 44%
08:00 +25°C° 0 mm 1 mps 711 mmHg 43%
09:00 +27°C° 0 mm 2 mps 711 mmHg 39%
10:00 +29°C° 0 mm 3 mps 712 mmHg 35%
11:00 +32°C° 0 mm 4 mps 712 mmHg 32%
12:00 +32°C° 0 mm 4 mps 711 mmHg 31%
13:00 +33°C° 0 mm 4 mps 711 mmHg 31%
14:00 +33°C° 0 mm 5 mps 710 mmHg 31%
15:00 +31°C° 0 mm 3 mps 710 mmHg 35%
16:00 +29°C° 0 mm 2 mps 710 mmHg 39%
17:00 +27°C° 0 mm 1 mps 709 mmHg 43%
18:00 +26°C° 0 mm 1 mps 710 mmHg 45%
19:00 +25°C° 0 mm 1 mps 710 mmHg 47%
20:00 +22°C° 0 mm 0 mps 710 mmHg 49%
21:00 +22°C° 0 mm 0 mps 710 mmHg 50%
22:00 +22°C° 0 mm 0 mps 710 mmHg 51%
23:00 +21°C° 0 mm 0 mps 711 mmHg 51%

Tomorrow, 13 July, Monday

Time Temperature Precipitation Wind Pressure Humidity
00:00 +23°C° 0 mm 1 mps 710 mmHg 52%
01:00 +23°C° 0 mm 1 mps 710 mmHg 52%
02:00 +23°C° 0 mm 1 mps 710 mmHg 52%
03:00 +23°C° 0 mm 1 mps 710 mmHg 53%
04:00 +22°C° 0 mm 1 mps 710 mmHg 54%
05:00 +22°C° 0 mm 1 mps 710 mmHg 56%
06:00 +23°C° 0 mm 1 mps 711 mmHg 54%
07:00 +24°C° 0 mm 1 mps 711 mmHg 52%
08:00 +26°C° 0 mm 2 mps 712 mmHg 50%
09:00 +28°C° 0 mm 2 mps 712 mmHg 44%
10:00 +30°C° 0 mm 2 mps 713 mmHg 38%
11:00 +32°C° 0 mm 2 mps 713 mmHg 33%
12:00 +33°C° 0 mm 3 mps 712 mmHg 32%
13:00 +34°C° 0 mm 3 mps 712 mmHg 31%
14:00 +34°C° 0 mm 3 mps 711 mmHg 30%
15:00 +32°C° 0 mm 2 mps 711 mmHg 34%
16:00 +30°C° 0 mm 2 mps 710 mmHg 37%
17:00 +29°C° 0 mm 1 mps 710 mmHg 41%
18:00 +28°C° 0 mm 1 mps 710 mmHg 43%
19:00 +27°C° 0 mm 1 mps 711 mmHg 45%
20:00 +26°C° 0 mm 1 mps 711 mmHg 47%
21:00 +25°C° 0 mm 1 mps 711 mmHg 48%
22:00 +25°C° 0 mm 1 mps 711 mmHg 50%
23:00 +24°C° 0 mm 1 mps 711 mmHg 51%

Day after tomorrow, 14 July, Tuesday

Time Temperature Precipitation Wind Pressure Humidity
00:00 +24°C° 0 mm 2 mps 711 mmHg 53%
01:00 +23°C° 0 mm 2 mps 711 mmHg 55%
02:00 +23°C° 0 mm 2 mps 711 mmHg 57%
03:00 +23°C° 0 mm 2 mps 711 mmHg 58%
04:00 +23°C° 0 mm 2 mps 711 mmHg 58%
05:00 +23°C° 0 mm 2 mps 711 mmHg 59%
06:00 +24°C° 0 mm 2 mps 712 mmHg 56%
07:00 +25°C° 0 mm 2 mps 712 mmHg 54%
08:00 +26°C° 0 mm 2 mps 713 mmHg 51%
09:00 +28°C° 0 mm 2 mps 713 mmHg 46%
10:00 +30°C° 0 mm 2 mps 713 mmHg 40%
11:00 +33°C° 0 mm 3 mps 714 mmHg 35%
12:00 +32°C° 0 mm 2 mps 713 mmHg 35%
13:00 +32°C° 0 mm 2 mps 712 mmHg 36%
14:00 +31°C° 0 mm 2 mps 711 mmHg 36%
15:00 +30°C° 0 mm 2 mps 711 mmHg 39%
16:00 +29°C° 0 mm 2 mps 711 mmHg 42%
17:00 +28°C° 0 mm 2 mps 711 mmHg 45%
18:00 +27°C° 0 mm 2 mps 711 mmHg 51%
19:00 +26°C° 0 mm 3 mps 711 mmHg 56%
20:00 +25°C° 0 mm 3 mps 711 mmHg 62%
21:00 +24°C° 0 mm 3 mps 712 mmHg 65%
22:00 +24°C° 0 mm 3 mps 712 mmHg 69%
23:00 +22°C° 0 mm 3 mps 712 mmHg 72%

15 July, Wednesday

Time Temperature Precipitation Wind Pressure Humidity
00:00 +22°C° 0 mm 4 mps 711 mmHg 72%
01:00 +21°C° 0 mm 4 mps 711 mmHg 71%
02:00 +21°C° 0 mm 4 mps 711 mmHg 70%
03:00 +21°C° 0 mm 4 mps 711 mmHg 71%
04:00 +20°C° 0 mm 3 mps 711 mmHg 71%
05:00 +20°C° 0 mm 3 mps 711 mmHg 72%
06:00 +21°C° 0 mm 4 mps 711 mmHg 66%
07:00 +22°C° 0 mm 4 mps 712 mmHg 61%
08:00 +23°C° 0 mm 5 mps 712 mmHg 55%
09:00 +26°C° 0 mm 5 mps 713 mmHg 47%
10:00 +29°C° 0 mm 5 mps 713 mmHg 40%
11:00 +32°C° 0 mm 5 mps 713 mmHg 32%
12:00 +33°C° 0 mm 5 mps 712 mmHg 30%
13:00 +33°C° 0 mm 4 mps 712 mmHg 29%
14:00 +34°C° 0 mm 4 mps 711 mmHg 27%
15:00 +31°C° 0 mm 3 mps 711 mmHg 30%
16:00 +30°C° 0 mm 3 mps 711 mmHg 34%
17:00 +29°C° 0 mm 2 mps 710 mmHg 37%
18:00 +28°C° 0 mm 2 mps 711 mmHg 37%
19:00 +27°C° 0 mm 2 mps 711 mmHg 37%
20:00 +26°C° 0 mm 3 mps 711 mmHg 37%
21:00 +26°C° 0 mm 3 mps 711 mmHg 40%
22:00 +25°C° 0 mm 3 mps 711 mmHg 42%
23:00 +24°C° 0 mm 3 mps 712 mmHg 44%

16 July, Thursday

Time Temperature Precipitation Wind Pressure Humidity
00:00 +24°C° 0 mm 3 mps 711 mmHg 44%
01:00 +22°C° 0 mm 3 mps 711 mmHg 44%
02:00 +22°C° 0 mm 3 mps 711 mmHg 44%
03:00 +21°C° 0 mm 3 mps 711 mmHg 45%
04:00 +21°C° 0 mm 3 mps 711 mmHg 46%
05:00 +20°C° 0 mm 3 mps 711 mmHg 47%
06:00 +22°C° 0 mm 4 mps 712 mmHg 44%
07:00 +23°C° 0 mm 4 mps 712 mmHg 42%
08:00 +25°C° 0 mm 5 mps 713 mmHg 40%
09:00 +27°C° 0 mm 5 mps 713 mmHg 36%
10:00 +30°C° 0 mm 4 mps 713 mmHg 32%
11:00 +33°C° 0 mm 4 mps 713 mmHg 28%
12:00 +34°C° 0 mm 4 mps 713 mmHg 27%
13:00 +34°C° 0 mm 3 mps 712 mmHg 25%
14:00 +35°C° 0 mm 3 mps 711 mmHg 24%
15:00 +32°C° 0 mm 2 mps 711 mmHg 27%
16:00 +31°C° 0 mm 1 mps 711 mmHg 30%
17:00 +29°C° 0 mm 1 mps 711 mmHg 33%
18:00 +28°C° 0 mm 1 mps 711 mmHg 34%
19:00 +27°C° 0 mm 1 mps 711 mmHg 36%
20:00 +24°C° 0 mm 0 mps 711 mmHg 37%
21:00 +25°C° 0 mm 1 mps 712 mmHg 38%
22:00 +25°C° 0 mm 2 mps 712 mmHg 40%
23:00 +24°C° 0 mm 3 mps 712 mmHg 41%

17 July, Friday

Time Temperature Precipitation Wind Pressure Humidity
00:00 +24°C° 0 mm 3 mps 712 mmHg 43%
01:00 +22°C° 0 mm 3 mps 711 mmHg 44%
02:00 +22°C° 0 mm 3 mps 711 mmHg 45%
03:00 +22°C° 0 mm 3 mps 711 mmHg 45%
04:00 +22°C° 0 mm 3 mps 711 mmHg 45%
05:00 +22°C° 0 mm 4 mps 711 mmHg 45%
06:00 +23°C° 0 mm 4 mps 712 mmHg 42%
07:00 +25°C° 0 mm 4 mps 712 mmHg 40%
08:00 +27°C° 0 mm 5 mps 713 mmHg 37%
09:00 +29°C° 0 mm 4 mps 713 mmHg 33%
10:00 +32°C° 0 mm 4 mps 713 mmHg 29%
11:00 +34°C° 0 mm 4 mps 713 mmHg 25%
12:00 +35°C° 0 mm 4 mps 713 mmHg 24%
13:00 +35°C° 0 mm 3 mps 712 mmHg 23%
14:00 +35°C° 0 mm 3 mps 712 mmHg 22%
15:00 +34°C° 0 mm 3 mps 711 mmHg 25%
16:00 +31°C° 0 mm 2 mps 711 mmHg 29%
17:00 +29°C° 0 mm 2 mps 710 mmHg 32%
18:00 +28°C° 0 mm 3 mps 710 mmHg 34%
19:00 +27°C° 0 mm 3 mps 711 mmHg 35%
20:00 +26°C° 0 mm 4 mps 711 mmHg 37%
21:00 +25°C° 0 mm 4 mps 711 mmHg 38%
22:00 +25°C° 0 mm 5 mps 711 mmHg 40%
23:00 +25°C° 0 mm 5 mps 711 mmHg 41%
Show more